Location: Unspecified
(0.0000°N, 0.0000°E)
Time: 16:23:03
(UTC+02:00)

ADEOS II - Visible Passes

Search period start: 23 September 2014 00:00
Search period end: 03 October 2014 00:00
Orbit: 801 x 803 km, 98.3° (Epoch: 22 September)

Date Brightness Start Highest point End Pass type
(mag) Time Alt. Az. Time Alt. Az. Time Alt. Az.
23 Sep 4.4 07:00:07 10° NE 07:04:29 27° ESE 07:08:52 10° SSE visible
24 Sep 5.3 06:36:15 10° ENE 06:38:36 13° ESE 06:40:57 10° SE visible
24 Sep 5.3 20:52:23 10° SW 20:54:53 14° WSW 20:57:24 10° WNW visible
25 Sep 4.4 20:24:34 10° SSW 20:29:00 28° WSW 20:33:25 10° NW visible
26 Sep 3.2 07:21:10 10° NNE 07:26:14 50° ESE 07:31:19 10° S visible
27 Sep 4.6 06:56:07 10° NE 07:00:20 25° ESE 07:04:32 10° SSE visible
28 Sep 5.4 06:32:40 10° E 06:34:27 12° ESE 06:36:13 10° ESE visible
28 Sep 5.2 20:47:49 10° SW 20:50:44 15° WSW 20:53:39 10° WNW visible
29 Sep 4.3 20:20:16 10° SSW 20:24:50 31° WSW 20:29:24 10° NW visible
30 Sep 3.4 07:17:05 10° NNE 07:22:04 45° ESE 07:27:04 10° S visible
01 Oct 4.8 06:52:09 10° NE 06:56:10 22° ESE 07:00:11 10° SSE visible
02 Oct 5.6 06:29:30 10° E 06:30:17 10° ESE 06:31:04 10° ESE visible
02 Oct 5.2 20:43:19 10° SW 20:46:34 17° WSW 20:49:49 10° WNW visible
